Regional Weather Roundup
Issued by NWS Green Bay, WI

Home | Current Version | Previous Version | Graphics & Text | Print | Product List | Glossary Off
Versions: 1 2 3 4 5 6 7 8 9 10 11 12 13 14 15 16 17 18 19 20 21 22 23 24 25 26 27 28 29 30 31 32 33 34 35 36 37 38 39 40 41 42 43 44 45 46 47 48 49 50

000
ASUS43 KGRB 101511
RWRGRB

NORTH-CENTRAL AND NORTHEAST WISCONSIN REGIONAL WEATHER ROUNDUP
NATIONAL WEATHER SERVICE GREEN BAY WI
900 AM CST SAT DEC 10 2016

WIZ005-009-010>012-018-019-101600-
NORTH CENTRAL WISCONSIN

CITY           SKY/WX    TMP DP  RH WIND       PRES   REMARKS
IRONWOOD       LGT SNOW   5   0  79 SW12      30.40S WCI -11
MANITOWISH WTR SUNNY      1  -3  82 W6        30.36S WCI -10
ARBOR VITAE    SUNNY      6  -1  73 NW8       30.36S WCI  -7
EAGLE RIVER    CLOUDY     5  -2  71 W7        30.34F WCI  -7
LAND O LAKES   FLURRIES   7   1  75 W6        30.35F WCI  -3
RHINELANDER    SUNNY      7  -2  66 W12       30.36S WCI  -8
PHILLIPS       SUNNY      6  -3  66 W5        30.39R WCI  -3
ANTIGO         CLOUDY     8   1  73 NW8       30.38R WCI  -5
TOMAHAWK       CLOUDY     5  -3  70 W3        30.40R
MERRILL        CLOUDY     9   1  69 N6        30.42R WCI  -1
$$

WIZ013-073-101600-
NORTHEAST WISCONSIN

CITY           SKY/WX    TMP DP  RH WIND       PRES   REMARKS
IRON MOUNTAIN  SUNNY      9  -2  61 W13       30.36R WCI  -7
MARINETTE      NOT AVBL
OCONTO         CLOUDY    14   3  60 NW6       30.44S WCI   5
$$

WIZ017-030-035>037-045-101600-
CENTRAL WISCONSIN

CITY           SKY/WX    TMP DP  RH WIND       PRES   REMARKS
MEDFORD        CLOUDY     8  -1  67 NW8       30.40S WCI  -5
WAUSAU         FLURRIES  10   2  69 NW12      30.41R WCI  -5
MOSINEE        FLURRIES  10   7  85 W8        30.42R WCI  -1
MARSHFIELD     CLOUDY    10   0  63 W7        30.42S WCI  -1
WISC RAPIDS    CLOUDY    11   7  84 W6        30.46S WCI   1
STEVENS POINT  CLOUDY    11   0  62 W7        30.44S WCI   0
WAUPACA        MOSUNNY   16   4  60 NW8       30.46S WCI   5
SHAWANO        CLOUDY    17   7  65 NW6       30.45R WCI   8
CLINTONVILLE   CLOUDY    14   3  62 W8        30.45R WCI   3
WAUTOMA        MOSUNNY   11   7  84 W9        30.48R WCI  -2
$$

WIZ038-039-048-051-101600-
FOX VALLEY

CITY           SKY/WX    TMP DP  RH WIND       PRES   REMARKS
NWS GREEN BAY  SUNNY     19   6  57 W10       30.45R WCI   7
APPLETON       MOSUNNY   14   1  57 W14       30.43R WCI  -1
OSHKOSH        SUNNY     14   8  77 W8        30.46R WCI   3
FOND DU LAC    SUNNY     15   7  70 W8        30.47R WCI   4
$$

WIZ022-050-052-101600-
EAST CENTRAL WISCONSIN

CITY           SKY/WX    TMP DP  RH WIND       PRES   REMARKS
EPHRAIM        FAIR      15   3  58 NW12G22   30.40S WCI   1
WASHINGTON ISL PTSUNNY   15   5  65 W13G20    30.40R WCI   1
STURGEON BAY   CLOUDY    15   5  64 NW14      30.43R WCI   0
MANITOWOC      SUNNY     17  10  74 W12       30.46R WCI   4
SHEBOYGAN      SUNNY     16   9  74 W12       30.46R WCI   3
$$

LMZ563-521-522-541>543-101600-
LAKESHORE

STATION/POSITION TIME  TEMP    WIND        PRES    VSBY  WAVE
                       AIR SEA DIR/SP/G                  HT/PER
                 (UTC) (F)     (DEG/KT/KT) (MB)    (MI)  (FT/S)
SHEBOYGAN LKSHOR 1500   16     270/ 12/ 16 1032.8R
KEWAUNEE LKSHORE 1448   18     300/ 11/ 19 1029.7R
ALGOMA MARINA    1436          330/  9/ 14   N/A
NORTHPORT PIER   1456   17     280/ 12/ 20 1029.8R
SISTER BAY LKSHO 1435   18     310/ 22/ 26   N/A
CHAMBERS ISLAND  1440   17     270/  7/ 17 1029.5R
MENOMINEE LKSHOR 1448   14     280/ 10/ 15 1029.7R
$$




USA.gov is the U.S. government's official web portal to all federal, state and local government web resources and services.